| time (UTC) | temp F | wind direction | speed knots | gust knots | rain 1hr in | rain 24hr in | rain mn in | humidity % | barometer mb |
| 20260504174553 | 54 | 350 | 13.0 | 22.6 | 0.00 | 0.00 | 0.00 | 38 | 1015.1 |
| 20260504173052 | 54 | 315 | 12.2 | 20.9 | 0.00 | 0.00 | 0.00 | 43 | 1015.1 |
| 20260504171555 | 53 | 323 | 10.4 | 16.5 | 0.00 | 0.00 | 0.00 | 43 | 1015.2 |
| 20260504100103 | 47 | 337 | 2.6 | 7.0 | 0.00 | 0.00 | 0.00 | 59 | 1016.0 |
| 20260504090108 | 49 | 42 | 6.1 | 11.3 | 0.00 | 0.00 | 0.00 | 54 | 1015.5 |
| 20260504081554 | 50 | 47 | 7.8 | 13.9 | 0.00 | 0.00 | 0.00 | 49 | 1014.9 |
| 20260504044558 | 58 | 51 | 5.2 | 11.3 | 0.00 | 0.02 | 0.00 | 36 | 1009.3 |
| 20260504043054 | 59 | 33 | 6.1 | 12.2 | 0.00 | 0.02 | 0.00 | 35 | 1008.9 |
| 20260504041552 | 60 | 71 | 5.2 | 10.4 | 0.00 | 0.02 | 0.00 | 34 | 1008.6 |
| 20260504040112 | 60 | 41 | 4.3 | 11.3 | 0.00 | 0.02 | 0.00 | 33 | 1008.4 |
| 20260504034557 | 62 | 34 | 5.2 | 10.4 | 0.00 | 0.02 | 0.00 | 30 | 1007.9 |
| 20260504033053 | 63 | 51 | 5.2 | 11.3 | 0.00 | 0.02 | 0.00 | 26 | 1007.6 |
| 20260504031552 | 66 | 50 | 5.2 | 11.3 | 0.00 | 0.02 | 0.00 | 22 | 1007.4 |
| 20260504030051 | 65 | 68 | 2.6 | 5.2 | 0.00 | 0.02 | 0.00 | 23 | 1007.0 |
| 20260504024555 | 66 | 61 | 2.6 | 5.2 | 0.00 | 0.02 | 0.00 | 23 | 1007.1 |
| 20260504023050 | 67 | 48 | 3.5 | 8.7 | 0.00 | 0.02 | 0.00 | 22 | 1006.9 |
| 20260504021553 | 69 | 13 | 2.6 | 7.0 | 0.00 | 0.02 | 0.00 | 22 | 1007.0 |
| 20260504020054 | 70 | 26 | 2.6 | 8.7 | 0.00 | 0.02 | 0.00 | 21 | 1006.9 |
| 20260504014553 | 72 | 347 | 3.5 | 8.7 | 0.00 | 0.02 | 0.00 | 20 | 1006.9 |
| 20260504013121 | 73 | 13 | 4.3 | 11.3 | 0.00 | 0.02 | 0.00 | 19 | 1006.9 |
| 20260504011553 | 74 | 16 | 3.5 | 13.0 | 0.00 | 0.02 | 0.00 | 17 | 1006.9 |
| 20260504010105 | 75 | 333 | 6.1 | 10.4 | 0.00 | 0.02 | 0.00 | 17 | 1006.9 |
| 20260504004608 | 75 | 331 | 7.0 | 13.0 | 0.00 | 0.02 | 0.00 | 16 | 1007.1 |
| 20260504003053 | 75 | 324 | 6.1 | 11.3 | 0.00 | 0.02 | 0.00 | 16 | 1007.2 |
| 20260504001554 | 75 | 344 | 8.7 | 13.0 | 0.00 | 0.02 | 0.00 | 16 | 1007.4 |
| 20260504000123 | 75 | 290 | 7.8 | 13.9 | 0.00 | 0.02 | 0.00 | 17 | 1007.4 |
| 20260503234553 | 75 | 306 | 10.4 | 17.4 | 0.00 | 0.02 | 0.00 | 16 | 1007.6 |
| 20260503233056 | 75 | 323 | 9.6 | 21.7 | 0.00 | 0.02 | 0.00 | 16 | 1007.6 |
| 20260503231551 | 76 | 286 | 13.0 | 20.9 | 0.00 | 0.02 | 0.00 | 16 | 1007.7 |
| 20260503230058 | 76 | 284 | 9.6 | 18.2 | 0.00 | 0.02 | 0.00 | 16 | 1007.9 |
| 20260503224552 | 75 | 299 | 8.7 | 19.1 | 0.00 | 0.02 | 0.00 | 17 | 1008.0 |
| 20260503223050 | 76 | 276 | 12.2 | 24.3 | 0.00 | 0.02 | 0.00 | 15 | 1008.1 |
| 20260503221554 | 75 | 262 | 11.3 | 18.2 | 0.00 | 0.02 | 0.00 | 16 | 1008.3 |
| 20260503214550 | 74 | 277 | 11.3 | 19.1 | 0.00 | 0.02 | 0.00 | 17 | 1008.6 |
| 20260503213053 | 73 | 266 | 7.8 | 14.8 | 0.00 | 0.02 | 0.00 | 18 | 1008.9 |
| 20260503211552 | 74 | 310 | 12.2 | 20.0 | 0.00 | 0.02 | 0.00 | 17 | 1009.3 |
| 20260503210050 | 74 | 319 | 8.7 | 20.9 | 0.00 | 0.02 | 0.00 | 17 | 1009.5 |
| 20260503204552 | 73 | 285 | 14.8 | 22.6 | 0.00 | 0.02 | 0.00 | 17 | 1009.9 |
| 20260503203056 | 73 | 292 | 11.3 | 22.6 | 0.00 | 0.02 | 0.00 | 18 | 1010.0 |
| 20260503201552 | 73 | 290 | 13.9 | 26.1 | 0.00 | 0.02 | 0.00 | 17 | 1010.1 |
| 20260503200056 | 73 | 289 | 15.6 | 22.6 | 0.00 | 0.02 | 0.00 | 18 | 1010.4 |
| 20260503194556 | 73 | 271 | 13.0 | 21.7 | 0.00 | 0.02 | 0.00 | 19 | 1010.6 |
| 20260503193052 | 72 | 281 | 13.0 | 21.7 | 0.00 | 0.02 | 0.00 | 22 | 1010.6 |
| 20260503191551 | 72 | 273 | 8.7 | 22.6 | 0.00 | 0.02 | 0.00 | 22 | 1010.9 |
| 20260503190048 | 71 | 288 | 7.8 | 20.0 | 0.00 | 0.02 | 0.00 | 24 | 1011.1 |
| 20260503184603 | 70 | 280 | 10.4 | 20.0 | 0.00 | 0.02 | 0.00 | 23 | 1011.3 |
| 20260503183057 | 70 | 283 | 11.3 | 20.0 | 0.00 | 0.02 | 0.00 | 24 | 1011.6 |
| 20260503181550 | 69 | 321 | 10.4 | 18.2 | 0.00 | 0.02 | 0.00 | 25 | 1011.8 |